User: anonymous   Login
Location: Darlington Observatory
(36.4817°N, 105.8156°W)
Time: 15:56:49
(UTC-07:00)
Language:

Cosmos 2278 Rocket - Orbit

View from above orbital plane
View from above orbital plane
View from above satellite
View from above satellite

Ground track
Ground track

The orbit data is extracted from the following two-line orbital elements,

1 23088U 94023B   14330.55267003 -.00000265  00000-0 -11309-3 0   799
2 23088 071.0015 081.5584 0001316 029.8855 046.7620 14.14598851 63512
Epoch (UTC): 26 November 2014 13:15:50
Eccentricity: 0.0001316
inclination: 71.0015°
perigee height: 843 km
apogee height: 844 km
right ascension of ascending node: 81.5584°
argument of perigee: 29.8855°
revolutions per day: 14.14598851
mean anomaly at epoch: 46.7620°
orbit number at epoch: 6351

The dashed part of the orbit path shows where the satellite is in the earth's shadow,  

DLR